Location: Newark
(34.1333°N, 7.9667°W)
Time: 23:36:19
(UTC+00:00)

JUGNU - Pass Details

Date: 13 June 2023
Orbit: 835 x 862 km, 20.0° (Epoch: 28 September)

Event Time Altitude Azimuth Distance (km) Brightness Sun altitude
Rises 20:46:49 0° 229° (SW) 3,412 ? -11.6°
Reaches altitude 10° 20:50:19 10° 209° (SSW) 2,472 ? -12.1°
Maximum altitude 20:53:58 17° 171° (S) 2,031 ? -12.7°
Enters shadow 20:55:29 15° 153° (SSE) 2,112 ? -13.0°
